Weather in Khvatovka

Russia / Saratov Oblast     52°21′14″N   46°33′45″E
temp.,
°C
wind,
m/s
gust,
m/s
humid.,
%
clouds,
%
prec.,
mm/h
press.,
hPa
HPBL,
m
28 june, tue
tue2801:00+17nnw1396100 3.3 101573
04:00+17wnw49945 4.1 1013136
07:00+20n49880 0.0 1013291
10:00+22ne567139 0.0 1014980
13:00+21ne6668100 0.6 10151001
16:00+21ne46572 0.8 10151496
19:00+18ne68598 0.0 1017836
22:00+13ne36700 0.0 101988
29 june, wed
wed2901:00+11nne23790 0.0 102039
04:00+10n33800 0.0 102030
07:00+12n47670 0.0 1021301
10:00+16n56490 0.0 10201576
13:00+18n6748100 0.0 10202022
16:00+17nne565589 0.0 10201760
19:00+17nne356187 0.0 10191102
22:00+15nw3562100 0.0 1019133
30 june, thu
thu3001:00+14nw366391 0.0 1018157
04:00+11nw46710 0.0 101894
07:00+13nw487286 0.0 1017243
10:00+18nw675227 0.0 10161117
13:00+21nw6842100 0.0 10142349
16:00+22nnw794110 0.0 10132713
19:00+19nnw5955100 0.0 1013548
22:00+14nw357279 0.0 101485
1 july, fri
fri101:00+14n378060 0.4 1014171
04:00+11n4883100 0.4 1015140
07:00+12nne511715 0.0 1017574
10:00+15nne68505 0.0 10171291
13:00+18nne684411 0.0 10171852
16:00+20n684578 0.0 10172244
19:00+17nne256393 0.0 1018153
22:00+14nnw237194 0.0 101952
2 july, sat
sat201:00+12nnw33764 0.0 101940
04:00+11nw34771 0.0 101965
07:00+14nw49716 0.0 1019276
10:00+20nw57535 0.0 1018792
13:00+23nw46435 0.0 10171699
16:00+25nw45425 0.0 10161978
19:00+23w4756100 0.0 1015350
22:00+18w3771100 0.0 1014112